Location: Corte Bragagnani
(45.3000°N, 11.1000°E)
Time: 00:48:10
(UTC+00:00)

Cosmos 1656 - Pass Details

Date: 09 April 2020
Orbit: 798 x 849 km, 71.1° (Epoch: 30 May)

Event Time Altitude Azimuth Distance (km) Brightness Sun altitude
Rises 19:41:46 0° 338° (NNW) 3,420 7.8 -18.2°
Reaches altitude 10° 19:44:21 10° 345° (NNW) 2,478 6.8 -18.6°
Maximum altitude 19:49:47 44° 57° (ENE) 1,148 4.2 -19.4°
Enters shadow 19:51:34 34° 100° (E) 1,350 4.3 -19.7°
